OBJECT C, 60205

Orbit data source: Space-Track

You're viewing an Uncataloged Satellite

Recently launched and/or uncataloged satellites may have evolving metadata. Metadata may include but not limited to: Owner, Maufacturer, Bus, Motor, and Mission.

OBJECT C, 60205 is a satellite owned by Teachers in Space (US) in SSO that was launched on Thu, 04 Jul 2024 UTC via an FIREFLY ALPHA launch vehicle from the Air Force Western Test Range (AFWTR). Unknown objects in Earth's orbit typically refer to objects detected orbiting the Earth but have not yet been identified or cataloged. These objects could be anything from previously untracked satellites, spent rocket stages, debris from satellite collisions, or even natural meteoroids temporarily captured by Earth's gravity.

Loading next visibility...
Identifier
60205, 2024-125C
Orbit
SSO
Last TLE update
2 days ago
Origin
Flag of USTIS (US)
Manufacturer
Quub
Mission
Operational spacecraft
Bus & Motor
CUBESAT 3U, Unknown motor
Mass
3 kg wet, 3 kg dry
Launch date (UTC)
2024-07-04 (10 months ago)
Launch vehicle
FIREFLY ALPHA
Launch site
Air Force Western Test Range (AFWTR)
Object type
Unknown
Shape & HBR
Unknown
Radar Cross Section
Small (<0.1 m²)

Expand to show TLE details & history

TLE from 2 days ago
0 OBJECT C
1 60205U 24125C   25118.54508333  .00036784  00000-0  91726-3 0  9991
2 60205  97.2829 331.9623 0013740 272.6640  87.3034 15.40020951 45596
Epoch: 2025-04-28T13:04Z
Definitive object data (Epoch: 2025-04-28T13:04:55.199Z)
Latitude
0.00001°
Longitude
-81.02527°
Altitude
448.74 km
Speed
7.643 km/s
True Right ascension
22h 07m 50s
True Declination
0° 00' 00"
Sunlit
Object was in daylight at TLE epoch
Visualization TLE readout
Latitude
-80.62219°
Longitude
51.10155°
Altitude
464.318 km
Speed
7.638 km/s
Apparent Right ascension
19h 41m 49s
Apparent Declination
-70° 37' 42"
Sunlit
Object is in daylight
Visualization observer readout
Local Sidereal Time
07:31:30
Azimuth
181.673° SSW
Elevation
-59.259°
Doppler factor
1
Orbital elements
Apogee altitude
452.354 km
Perigee altitude
433.609 km
Semi-major axis
6,821.118 km
Eccentricity
0.001374
Inclination
97.2829°
RAAN
331.9623°
Arg. of periapsis
272.664°
True anomaly
87.46069°
Mean anomaly
87.3034°
Eccentric anomaly
87.38204°
Mean motion
3.85265 °/min
BSTAR
0.00091726
Orbital period
93.44 mins
Loading maneuver chart data...
Loading SW <> Apogee altitude chart data...
Loading historical data...
Loading historical data...
Loading historical data...
Loading historical data...
Loading historical data...
Loading historical data...
Loading historical data...

OBJECT C Visibility forecast

Observer location: undefined°, undefined°

Span
Click to sort rows by Start time (UTC) header in descending order
Start Az.
Max El. time (UTC)
Max El. Az.
Max El.
End time (UTC)
End Az.
5 mins2025-05-01 02:28:16.882Z45.407° ENE2025-05-01 02:30:16.882Z92.118° ESE24.126°2025-05-01 02:33:16.882Z156.062° SSE
5 mins2025-05-01 14:30:16.882Z188.579° SSW2025-05-01 14:32:16.882Z242.938° WSW37.527°2025-05-01 14:35:16.882Z335.31° NNW
|